Regional Weather Roundup
Issued by NWS Charleston, SC

Current Version | Previous Version | Graphics & Text | Print | Product List | Glossary On
Versions: 1 2 3 4 5 6 7 8 9 10 11 12 13 14 15 16 17 18 19 20 21 22 23 24 25 26 27 28 29 30 31 32 33 34 35 36 37 38 39 40 41 42 43 44 45 46 47 48 49 50
000
ASUS42 KCHS 161825
RWRCHS

REGIONAL WEATHER ROUNDUP
NATIONAL WEATHER SERVICE CHARLESTON SC
200 PM EDT WED APR 16 2014

NOTE: "FAIR" INDICATES FEW OR NO CLOUDS BELOW 12,000 FEET WITH NO
SIGNIFICANT WEATHER AND/OR OBSTRUCTIONS TO VISIBILITY.

NOT ALL STATIONS ARE QUALITY CONTROLLED BY THE NATIONAL
WEATHER SERVICE. USE DATA WITH CAUTION...ESPECIALLY
DEWPOINT OBSERVATIONS.

SCZ027-030-031-034>040-042>050-161900-
...SOUTH CAROLINA...

CITY           SKY/WX    TMP DP  RH WIND       PRES   REMARKS
N CHARLESTON   SUNNY     60  32  34 NE9       30.30F
6HR MIN TEMP:  43; 6HR MAX TEMP:  60;

WATERFRONT PRK   N/A     55 N/A N/A E9G17       N/A
FORT JOHNSON     N/A     54  37  54 E7G15     30.36S
MOUNT PLEASANT FAIR     N/A N/A N/A E6        30.30S
JOHNS ISLAND   CLEAR     57  41  54 NE12G23   30.31S
PINOPOLIS        N/A     54  32  43 NE7       30.23F
MONCKS CORNER    N/A     57  37  47 NE15      30.31F
SUMMERVILLE    FAIR      57  32  38 N8G21     30.31F
BEAUFORT MCAS  MOSUNNY   57  35  43 SE8G16    30.31S
6HR MIN TEMP:  43; 6HR MAX TEMP:  57;

BEAUFORT ARPT  FAIR      55  41  58 NE8       30.30S
HILTON HEAD IS PTSUNNY   54  41  62 E9        30.31S
GEORGETOWN     NOT AVBL
WALTERBORO     CLEAR     57  32  38 NE8G17    30.31S
ORANGEBURG     SUNNY     54  25  32 E13G20    30.33S
6HR MIN TEMP:  40; 6HR MAX TEMP:  55;

BARNWELL       FAIR      57  28  33 NE14      30.32S
AIKEN          FAIR      55  32  41 E13G29    30.34F
MANNING        FAIR      55  19  24 E6        30.33F
KINGSTREE      NOT AVBL
COLUMBIA       SUNNY     57  23  26 NE8       30.33F
6HR MIN TEMP:  41; 6HR MAX TEMP:  57;

SUMTER         SUNNY     54  24  31 NE16      30.32F
6HR MIN TEMP:  38; 6HR MAX TEMP:  54;

FLORENCE       SUNNY     55  28  35 NE16      30.34F
6HR MIN TEMP:  39; 6HR MAX TEMP:  55;

MYRTLE BEACH   SUNNY     54  30  40 NE16G22   30.32
N MYRTLE BEACH SUNNY     55  28  35 NE9G20    30.32S
6HR MIN TEMP:  42; 6HR MAX TEMP:  55;


$$

GAZ063-065-086>088-099>101-113>116-118-119-134-136>141-150-161900-
...GEORGIA...

CITY           SKY/WX    TMP DP  RH WIND       PRES   REMARKS
SAVANNAH ARPT  MOSUNNY   59  34  39 VRB3      30.30F
6HR MIN TEMP:  44; 6HR MAX TEMP:  59;

HUNTER AAF     SUNNY     57  41  54 E12G21    30.28F
6HR MIN TEMP:  44; 6HR MAX TEMP:  57;

FORT STEWART   MOSUNNY   58  41  52 E13G20    30.27F
6HR MIN TEMP:  44; 6HR MAX TEMP:  58;

STATESBORO     NOT AVBL
SYLVANIA       CLEAR     59  32  36 E8        30.30F
CLAXTON        FAIR      59  37  44 NE12      30.28F
THOMSON        SUNNY     57  33  41 E12       30.34S
AUGUSTA-BUSH   SUNNY     59  28  30 NE10G22   30.31F
6HR MIN TEMP:  39; 6HR MAX TEMP:  59;

AUGUSTA-DANIEL SUNNY     57  25  29 E12G20    30.31F
SWAINSBORO     FAIR      55  34  44 E12       30.29F
VIDALIA        SUNNY     57  36  44 E14       30.27F
ALMA           SUNNY     58  37  45 NE8       30.25F
6HR MIN TEMP:  41; 6HR MAX TEMP:  59;

WAYCROSS       NOT AVBL
JESUP          FAIR      57  43  58 E10G18    30.27S
BRUNSWICK      CLOUDY    59  46  63 E18G30    30.28S
SAINT SIMONS   CLOUDY   N/A N/A N/A NE17G28   30.27S
6HR MIN TEMP:  48; 6HR MAX TEMP:  58;


$$

SCZ027-028-034-036>038-045-046-048>050-GAZ119-141-161900-
...LAKE AND SUPPLEMENTAL COASTAL OBSERVATIONS...

STATION/POSITION TIME  TEMP    WIND        PRES    WAVE   SWELL
                       AIR SEA DIR/SP/G            HT/PER HT/PER/DIR
                 (UTC) (F)     (DEG/KT/KT) (MB)    (FT/S) (FT/S/D)
UPR LAKE MARION  NOT AVBL
WINYAH BAY       1800   51      60/ 12     1026.0S
LAKE MURRAY      1700   50      80/  5/ 13 1026.8F
ACE BASIN NERRS  1800   57      50/  4     1026.0S
FORT PULASKI     1800   53 61   60/ 16/ 20 1026.4F
SAPELO ISLAND    1800   56      40/ 15     1025.0S

$$

ANZ086-088-AMZ330-350-352-354-374-454-470-161900-
...C-MAN AND BUOY OBSERVATIONS...

STATION/POSITION TIME  TEMP    WIND        PRES    WAVE   SWELL
                       AIR SEA DIR/SP/G            HT/PER HT/PER/DIR
                 (UTC) (F)     (DEG/KT/KT) (MB)    (FT/S) (FT/S/D)
FOLLY BEACH CMAN 1800   52      60/ 18/ 21 1026.7F
BUOY 41004       NOT AVBL
BUOY 41008       1800   54 63   30/ 21/ 25 1024.6S   7/ 8   3/ 80/ 8
5E ST. MARYS GA  1800      65                N/A     6/ 8
FRYING PAN BUOY  1800   48 64   50/ 19/ 27 1026.2R   8/ 8   3/100/ 9
BUOY 41025       NOT AVBL
CAPE LOOKOUT NC  1800   49      10/ 19/ 24 1027.1R
BUOY 41002       NOT AVBL
BUOY 41010       1800   71 76   20/ 19/ 23 1019.5R   7/ 8   3/ 20/15
BUOY 41012       NOT AVBL
ST AUGUSTINE FL  1800   60      20/ 22/ 27 1023.2S


$$


USA.gov is the U.S. government's official web portal to all federal, state and local government web resources and services.